Wetterdaten: Mittwoch, 05.05.2004
Datum Zeit Temp. A Sch. Temp. A Son. Feuchte A. Luftdruck Regen Wind Richtung Richtung Sonnenschein Helligkeit Taupunkt Windchill
05.05.2004 00:00 7,9 C 9,4 C 84 % 988 hPa 0,0 l/m 0,0 m/s (0 Bft) S 170 0,00 min 0 lux 5,4 C 7,9 C
05.05.2004 00:05 7,6 C 9,3 C 84 % 988 hPa 0,0 l/m 0,0 m/s (0 Bft) W-SW 250 0,00 min 0 lux 5,1 C 7,6 C
05.05.2004 00:10 7,5 C 9,2 C 84 % 988 hPa 0,0 l/m 0,0 m/s (0 Bft) W-SW 250 0,00 min 0 lux 5,0 C 7,5 C
05.05.2004 00:15 7,4 C 9,1 C 84 % 989 hPa 0,0 l/m 0,0 m/s (0 Bft) W 260 0,00 min 0 lux 4,9 C 7,4 C
05.05.2004 00:20 7,5 C 9,0 C 85 % 989 hPa 0,0 l/m 0,0 m/s (0 Bft) W-NW 290 0,00 min 0 lux 5,1 C 7,5 C
05.05.2004 00:25 7,3 C 8,8 C 84 % 989 hPa 0,0 l/m 0,0 m/s (0 Bft) W-NW 290 0,00 min 0 lux 4,8 C 7,3 C
05.05.2004 00:30 7,5 C 8,8 C 84 % 988 hPa 0,0 l/m 0,0 m/s (0 Bft) W-NW 290 0,00 min 0 lux 5,0 C 7,5 C
05.05.2004 00:35 7,3 C 8,7 C 85 % 988 hPa 0,0 l/m 0,0 m/s (0 Bft) W-NW 285 0,00 min 0 lux 4,9 C 7,3 C
05.05.2004 00:40 7,6 C 8,7 C 85 % 988 hPa 0,0 l/m 0,0 m/s (0 Bft) W-NW 285 0,00 min 0 lux 5,2 C 7,6 C
05.05.2004 00:45 7,5 C 8,7 C 84 % 988 hPa 0,0 l/m 0,0 m/s (0 Bft) W-NW 285 0,00 min 0 lux 5,0 C 7,5 C
05.05.2004 00:50 7,5 C 8,8 C 84 % 988 hPa 0,0 l/m 0,0 m/s (0 Bft) W-NW 285 0,00 min 0 lux 5,0 C 7,5 C
05.05.2004 00:55 7,7 C 8,8 C 84 % 988 hPa 0,0 l/m 0,0 m/s (0 Bft) SW45 230 0,00 min 0 lux 5,2 C 7,7 C
05.05.2004 01:00 7,8 C 8,8 C 84 % 988 hPa 0,0 l/m 0,0 m/s (0 Bft) SW 215 0,00 min 0 lux 5,3 C 7,8 C
05.05.2004 01:05 7,8 C 8,8 C 84 % 988 hPa 0,0 l/m 0,0 m/s (0 Bft) SW 215 0,00 min 0 lux 5,3 C 7,8 C
05.05.2004 01:10 7,7 C 8,8 C 83 % 988 hPa 0,0 l/m 0,0 m/s (0 Bft) SW 215 0,00 min 0 lux 5,0 C 7,7 C
05.05.2004 01:15 7,8 C 8,8 C 83 % 988 hPa 0,0 l/m 0,0 m/s (0 Bft) SW 215 0,00 min 0 lux 5,1 C 7,8 C
05.05.2004 01:20 7,8 C 8,8 C 84 % 988 hPa 0,0 l/m 0,0 m/s (0 Bft) SW 215 0,00 min 0 lux 5,3 C 7,8 C
05.05.2004 01:25 7,9 C 8,9 C 84 % 988 hPa 0,0 l/m 0,9 m/s (0 Bft) W-NW22.5 290 0,00 min 0 lux 5,4 C 7,9 C
05.05.2004 01:30 8,2 C 8,9 C 83 % 988 hPa 0,0 l/m 0,5 m/s (0 Bft) W22.5 280 0,00 min 0 lux 5,5 C 8,2 C
05.05.2004 01:35 8,1 C 8,9 C 83 % 988 hPa 0,0 l/m 0,0 m/s (0 Bft) W-NW 285 0,00 min 0 lux 5,4 C 8,1 C
05.05.2004 01:40 8,1 C 8,9 C 83 % 988 hPa 0,0 l/m 0,0 m/s (0 Bft) W-NW 285 0,00 min 0 lux 5,4 C 8,1 C
05.05.2004 01:45 7,9 C 9,0 C 84 % 988 hPa 0,0 l/m 0,0 m/s (0 Bft) W-NW 285 0,00 min 0 lux 5,4 C 7,9 C
05.05.2004 01:50 7,8 C 9,0 C 85 % 988 hPa 0,0 l/m 0,0 m/s (0 Bft) W-NW 290 0,00 min 0 lux 5,4 C 7,8 C
05.05.2004 01:55 7,8 C 9,0 C 85 % 988 hPa 0,0 l/m 0,0 m/s (0 Bft) W-NW 290 0,00 min 0 lux 5,4 C 7,8 C
05.05.2004 02:00 7,8 C 9,0 C 85 % 988 hPa 0,0 l/m 0,0 m/s (0 Bft) W-NW 290 0,00 min 0 lux 5,4 C 7,8 C
05.05.2004 02:05 7,8 C 9,0 C 85 % 988 hPa 0,0 l/m 0,0 m/s (0 Bft) W-NW 285 0,00 min 0 lux 5,4 C 7,8 C
05.05.2004 02:10 7,9 C 9,0 C 85 % 988 hPa 0,0 l/m 0,0 m/s (0 Bft) W-NW 285 0,00 min 0 lux 5,5 C 7,9 C
05.05.2004 02:15 8,0 C 9,0 C 84 % 988 hPa 0,0 l/m 0,0 m/s (0 Bft) W-NW 285 0,00 min 0 lux 5,5 C 8,0 C
05.05.2004 02:20 8,0 C 9,0 C 85 % 988 hPa 0,0 l/m 0,0 m/s (0 Bft) W-NW 285 0,00 min 0 lux 5,6 C 8,0 C
05.05.2004 02:25 8,0 C 9,0 C 85 % 988 hPa 0,0 l/m 0,0 m/s (0 Bft) NO22.5 40 0,00 min 0 lux 5,6 C 8,0 C
05.05.2004 02:30 8,4 C 9,0 C 85 % 988 hPa 0,0 l/m 0,9 m/s (0 Bft) W22.5 270 0,00 min 0 lux 6,0 C 8,4 C
05.05.2004 02:35 8,7 C 9,0 C 82 % 988 hPa 0,0 l/m 0,1 m/s (0 Bft) W-SW22.5 255 0,00 min 0 lux 5,8 C 8,7 C
05.05.2004 02:40 8,6 C 9,1 C 81 % 988 hPa 0,0 l/m 0,1 m/s (0 Bft) W-SW 250 0,00 min 0 lux 5,5 C 8,6 C
05.05.2004 02:45 9,0 C 9,1 C 79 % 988 hPa 0,0 l/m 1,6 m/s (1 Bft) W-SW22.5 250 0,00 min 0 lux 5,6 C 9,0 C
05.05.2004 02:50 9,3 C 9,3 C 76 % 988 hPa 0,0 l/m 2,1 m/s (1 Bft) W45 265 0,00 min 0 lux 5,3 C 8,4 C
05.05.2004 02:55 9,5 C 9,3 C 74 % 988 hPa 0,0 l/m 1,9 m/s (1 Bft) W-SW45 245 0,00 min 0 lux 5,1 C 9,1 C
05.05.2004 03:00 9,5 C 9,5 C 74 % 988 hPa 0,0 l/m 0,2 m/s (0 Bft) W22.5 275 0,00 min 0 lux 5,1 C 9,5 C
05.05.2004 03:05 9,5 C 9,6 C 74 % 988 hPa 0,0 l/m 0,2 m/s (0 Bft) W22.5 275 0,00 min 0 lux 5,1 C 9,5 C
05.05.2004 03:10 9,6 C 9,6 C 73 % 988 hPa 0,0 l/m 1,3 m/s (1 Bft) W-SW22.5 250 0,00 min 0 lux 5,0 C 9,6 C
05.05.2004 03:15 9,5 C 9,7 C 74 % 988 hPa 0,0 l/m 0,0 m/s (0 Bft) W-SW 245 0,00 min 0 lux 5,1 C 9,5 C
05.05.2004 03:20 9,5 C 9,7 C 74 % 988 hPa 0,0 l/m 1,3 m/s (1 Bft) W-SW22.5 255 0,00 min 0 lux 5,1 C 9,5 C
05.05.2004 03:25 9,5 C 9,7 C 73 % 988 hPa 0,0 l/m 2,4 m/s (1 Bft) W-SW45 250 0,00 min 0 lux 4,9 C 8,0 C
05.05.2004 03:30 9,4 C 9,7 C 74 % 988 hPa 0,0 l/m 1,6 m/s (1 Bft) SW22.5 225 0,00 min 0 lux 5,0 C 9,4 C
05.05.2004 03:35 9,5 C 9,7 C 74 % 988 hPa 0,0 l/m 2,7 m/s (1 Bft) W-SW22.5 245 0,00 min 0 lux 5,1 C 7,3 C
05.05.2004 03:40 9,5 C 9,7 C 73 % 988 hPa 0,0 l/m 2,9 m/s (1 Bft) W-SW45 255 0,00 min 0 lux 4,9 C 6,9 C
05.05.2004 03:45 9,5 C 9,7 C 73 % 988 hPa 0,0 l/m 0,4 m/s (0 Bft) W-SW22.5 245 0,00 min 0 lux 4,9 C 9,5 C
05.05.2004 03:50 9,5 C 9,7 C 73 % 988 hPa 0,0 l/m 0,4 m/s (0 Bft) SW22.5 225 0,00 min 0 lux 4,9 C 9,5 C
05.05.2004 03:55 9,5 C 9,8 C 73 % 988 hPa 0,0 l/m 2,9 m/s (1 Bft) W-SW45 250 0,00 min 0 lux 4,9 C 6,9 C
05.05.2004 04:00 9,6 C 9,8 C 72 % 988 hPa 0,0 l/m 2,2 m/s (1 Bft) W-SW45 250 0,00 min 0 lux 4,8 C 8,6 C
05.05.2004 04:05 9,6 C 9,8 C 71 % 988 hPa 0,0 l/m 3,8 m/s (1 Bft) W-SW45 245 0,00 min 0 lux 4,6 C 5,2 C
05.05.2004 04:10 9,8 C 9,8 C 69 % 988 hPa 0,0 l/m 4,9 m/s (1 Bft) W-SW45 240 0,00 min 0 lux 4,4 C 3,9 C
05.05.2004 04:15 9,6 C 9,9 C 68 % 988 hPa 0,0 l/m 3,7 m/s (1 Bft) SW67.5 235 0,00 min 0 lux 4,0 C 5,4 C
05.05.2004 04:20 9,6 C 9,9 C 68 % 988 hPa 0,0 l/m 2,8 m/s (1 Bft) SW67.5 230 0,00 min 0 lux 4,0 C 7,2 C
05.05.2004 04:25 9,6 C 9,9 C 68 % 988 hPa 0,0 l/m 4,3 m/s (1 Bft) SW45 225 0,00 min 0 lux 4,0 C 4,4 C
05.05.2004 04:30 9,6 C 9,9 C 67 % 987 hPa 0,0 l/m 4,9 m/s (1 Bft) W-SW67.5 240 0,00 min 0 lux 3,8 C 3,6 C
05.05.2004 04:35 9,6 C 9,9 C 68 % 987 hPa 0,0 l/m 2,9 m/s (1 Bft) SW67.5 230 0,00 min 0 lux 4,0 C 7,0 C
05.05.2004 04:40 9,6 C 9,9 C 68 % 987 hPa 0,0 l/m 4,1 m/s (1 Bft) SW45 220 0,00 min 0 lux 4,0 C 4,7 C
05.05.2004 04:45 9,6 C 9,9 C 68 % 987 hPa 0,0 l/m 3,0 m/s (1 Bft) SW45 225 0,00 min 0 lux 4,0 C 6,8 C
05.05.2004 04:50 9,6 C 9,9 C 69 % 987 hPa 0,0 l/m 3,7 m/s (1 Bft) SW22.5 230 0,00 min 0 lux 4,2 C 5,4 C
05.05.2004 04:55 9,5 C 9,9 C 69 % 987 hPa 0,0 l/m 2,7 m/s (1 Bft) S67.5 180 0,00 min 0 lux 4,1 C 7,3 C
05.05.2004 05:00 9,4 C 9,8 C 70 % 988 hPa 0,0 l/m 5,1 m/s (1 Bft) S-SW45 205 0,00 min 0 lux 4,2 C 3,0 C
05.05.2004 05:05 9,3 C 9,8 C 70 % 987 hPa 0,0 l/m 2,9 m/s (1 Bft) S-SW67.5 205 0,00 min 0 lux 4,1 C 6,5 C
05.05.2004 05:10 9,3 C 9,8 C 70 % 987 hPa 0,0 l/m 5,2 m/s (1 Bft) SW45 225 0,00 min 0 lux 4,1 C 2,9 C
05.05.2004 05:15 9,3 C 9,7 C 69 % 987 hPa 0,0 l/m 3,3 m/s (1 Bft) S-SW67.5 205 0,00 min 0 lux 3,9 C 5,8 C
05.05.2004 05:20 9,3 C 9,7 C 69 % 987 hPa 0,0 l/m 5,3 m/s (1 Bft) SW45 225 0,00 min 0 lux 3,9 C 2,7 C
05.05.2004 05:25 9,3 C 9,7 C 69 % 987 hPa 0,0 l/m 3,8 m/s (1 Bft) SW67.5 215 0,00 min 0 lux 3,9 C 4,9 C
05.05.2004 05:30 9,2 C 9,7 C 69 % 987 hPa 0,0 l/m 4,0 m/s (1 Bft) SW45 215 0,00 min 0 lux 3,8 C 4,4 C
05.05.2004 05:35 9,2 C 9,6 C 69 % 987 hPa 0,0 l/m 3,6 m/s (1 Bft) SW67.5 215 0,00 min 0 lux 3,8 C 5,0 C
05.05.2004 05:40 9,3 C 9,6 C 69 % 987 hPa 0,0 l/m 3,9 m/s (1 Bft) SW45 225 0,00 min 0 lux 3,9 C 4,6 C
05.05.2004 05:45 9,1 C 9,6 C 69 % 987 hPa 0,0 l/m 3,8 m/s (1 Bft) SW45 230 0,00 min 64 lux 3,7 C 4,7 C
05.05.2004 05:50 9,2 C 9,6 C 69 % 987 hPa 0,0 l/m 4,6 m/s (1 Bft) SW45 235 0,00 min 97 lux 3,8 C 3,5 C
05.05.2004 05:55 9,1 C 9,6 C 69 % 987 hPa 0,0 l/m 1,3 m/s (1 Bft) SW 215 0,00 min 152 lux 3,7 C 9,1 C
05.05.2004 06:00 9,1 C 9,5 C 70 % 987 hPa 0,0 l/m 2,6 m/s (1 Bft) S-SW67.5 195 0,00 min 251 lux 3,9 C 7,0 C
05.05.2004 06:05 9,1 C 9,6 C 70 % 987 hPa 0,0 l/m 2,1 m/s (1 Bft) S-SW67.5 195 0,00 min 409 lux 3,9 C 8,3 C
05.05.2004 06:10 9,0 C 9,5 C 70 % 987 hPa 0,0 l/m 0,0 m/s (0 Bft) S22.5 170 0,00 min 599 lux 3,8 C 9,0 C
05.05.2004 06:15 8,9 C 9,5 C 72 % 987 hPa 0,0 l/m 0,2 m/s (0 Bft) O-SO45 105 0,00 min 719 lux 4,1 C 8,9 C
05.05.2004 06:20 8,9 C 9,4 C 72 % 987 hPa 0,0 l/m 1,1 m/s (1 Bft) SO22.5 130 0,00 min 800 lux 4,1 C 8,9 C
05.05.2004 06:25 8,9 C 9,4 C 72 % 987 hPa 0,0 l/m 0,1 m/s (0 Bft) SO 130 0,00 min 940 lux 4,1 C 8,9 C
05.05.2004 06:30 9,0 C 9,4 C 71 % 987 hPa 0,0 l/m 1,9 m/s (1 Bft) SO45 125 0,00 min 1,20 klux 4,0 C 8,8 C
05.05.2004 06:35 9,0 C 9,4 C 71 % 987 hPa 0,0 l/m 1,9 m/s (1 Bft) SO45 125 0,00 min 1,23 klux 4,0 C 8,8 C
05.05.2004 06:40 9,1 C 9,4 C 70 % 987 hPa 0,0 l/m 0,5 m/s (0 Bft) O-SO22.5 105 0,00 min 1,23 klux 3,9 C 9,1 C
05.05.2004 06:45 9,1 C 9,4 C 70 % 987 hPa 0,0 l/m 2,4 m/s (1 Bft) O22.5 95 0,00 min 1,39 klux 3,9 C 7,4 C
05.05.2004 06:50 9,1 C 9,4 C 70 % 987 hPa 0,0 l/m 2,1 m/s (1 Bft) S67.5 170 0,00 min 1,74 klux 3,9 C 8,3 C
05.05.2004 06:55 9,1 C 9,4 C 70 % 987 hPa 0,0 l/m 1,8 m/s (1 Bft) NW22.5 305 0,00 min 2,87 klux 3,9 C 9,1 C
05.05.2004 07:00 9,1 C 9,5 C 70 % 987 hPa 0,0 l/m 0,4 m/s (0 Bft) W22.5 260 0,00 min 4,07 klux 3,9 C 9,1 C
05.05.2004 07:05 9,1 C 9,5 C 70 % 987 hPa 0,0 l/m 0,0 m/s (0 Bft) SW45 230 0,00 min 4,42 klux 3,9 C 9,1 C
05.05.2004 07:10 9,2 C 9,5 C 70 % 987 hPa 0,0 l/m 0,5 m/s (0 Bft) W-SW67.5 240 0,00 min 4,75 klux 4,0 C 9,2 C
05.05.2004 07:15 9,3 C 9,6 C 70 % 988 hPa 0,0 l/m 0,3 m/s (0 Bft) S67.5 185 0,00 min 4,80 klux 4,1 C 9,3 C
05.05.2004 07:20 9,4 C 9,6 C 69 % 988 hPa 0,0 l/m 1,5 m/s (1 Bft) S67.5 185 0,00 min 5,56 klux 4,0 C 9,4 C
05.05.2004 07:25 9,3 C 9,7 C 69 % 988 hPa 0,0 l/m 3,5 m/s (1 Bft) W-SW22.5 250 0,00 min 6,09 klux 3,9 C 5,4 C
05.05.2004 07:30 9,4 C 9,7 C 69 % 988 hPa 0,0 l/m 2,8 m/s (1 Bft) SW22.5 230 0,00 min 7,67 klux 4,0 C 6,8 C
05.05.2004 07:35 9,5 C 9,8 C 69 % 988 hPa 0,0 l/m 0,4 m/s (0 Bft) SW45 225 0,00 min 10,3 klux 4,1 C 9,5 C
05.05.2004 07:40 9,7 C 9,9 C 69 % 988 hPa 0,0 l/m 4,3 m/s (1 Bft) S-SW67.5 210 0,00 min 10,4 klux 4,3 C 4,6 C
05.05.2004 07:45 9,9 C 10,0 C 68 % 988 hPa 0,0 l/m 5,1 m/s (1 Bft) SW67.5 220 0,00 min 10,2 klux 4,3 C 3,8 C
05.05.2004 07:50 9,9 C 10,0 C 68 % 988 hPa 0,0 l/m 4,3 m/s (1 Bft) SW45 230 0,00 min 13,1 klux 4,3 C 4,9 C
05.05.2004 07:55 9,8 C 10,1 C 68 % 988 hPa 0,0 l/m 4,2 m/s (1 Bft) W-SW45 240 0,00 min 16,5 klux 4,2 C 4,8 C
05.05.2004 08:00 9,8 C 10,1 C 67 % 988 hPa 0,0 l/m 5,9 m/s (2 Bft) W-SW45 240 0,00 min 17,1 klux 4,0 C 2,6 C
05.05.2004 08:05 10,0 C 10,2 C 66 % 988 hPa 0,0 l/m 3,5 m/s (1 Bft) SW67.5 215 0,00 min 16,8 klux 3,9 C 6,3 C
05.05.2004 08:10 10,0 C 10,3 C 65 % 988 hPa 0,0 l/m 3,9 m/s (1 Bft) SW45 230 0,00 min 16,5 klux 3,7 C 5,5 C
05.05.2004 08:15 10,1 C 10,3 C 66 % 988 hPa 0,0 l/m 5,8 m/s (2 Bft) SW45 225 0,00 min 17,3 klux 4,0 C 3,1 C
05.05.2004 08:20 10,3 C 10,4 C 66 % 988 hPa 0,0 l/m 3,6 m/s (1 Bft) S67.5 190 0,00 min 15,5 klux 4,2 C 6,4 C
05.05.2004 08:25 10,2 C 10,5 C 65 % 988 hPa 0,0 l/m 2,8 m/s (1 Bft) S-SW67.5 195 0,00 min 13,7 klux 3,9 C 7,9 C
05.05.2004 08:30 10,2 C 10,6 C 65 % 988 hPa 0,0 l/m 3,8 m/s (1 Bft) SW45 230 0,00 min 18,0 klux 3,9 C 5,9 C
05.05.2004 08:35 10,3 C 10,6 C 65 % 988 hPa 0,0 l/m 3,7 m/s (1 Bft) SW67.5 220 0,00 min 17,5 klux 4,0 C 6,3 C
05.05.2004 08:40 10,4 C 10,7 C 65 % 988 hPa 0,0 l/m 3,3 m/s (1 Bft) SW22.5 225 0,00 min 18,2 klux 4,1 C 7,0 C
05.05.2004 08:45 10,6 C 10,7 C 65 % 988 hPa 0,0 l/m 2,8 m/s (1 Bft) S-SW67.5 210 0,00 min 19,6 klux 4,3 C 8,3 C
05.05.2004 08:50 10,8 C 10,8 C 65 % 988 hPa 0,0 l/m 1,8 m/s (1 Bft) S67.5 185 0,00 min 16,3 klux 4,5 C 10,8 C
05.05.2004 08:55 10,8 C 10,8 C 65 % 988 hPa 0,0 l/m 2,5 m/s (1 Bft) S-SW67.5 195 0,00 min 12,5 klux 4,5 C 9,1 C
05.05.2004 09:00 10,8 C 10,9 C 66 % 988 hPa 0,0 l/m 1,3 m/s (1 Bft) S67.5 190 0,00 min 12,9 klux 4,7 C 10,8 C
05.05.2004 09:05 10,8 C 10,9 C 65 % 988 hPa 0,0 l/m 2,3 m/s (1 Bft) SW45 230 0,00 min 16,3 klux 4,5 C 9,5 C
05.05.2004 09:10 11,0 C 11,0 C 64 % 988 hPa 0,0 l/m 1,3 m/s (1 Bft) SW67.5 230 0,00 min 20,0 klux 4,5 C 11,0 C
05.05.2004 09:15 10,9 C 11,1 C 65 % 988 hPa 0,0 l/m 0,4 m/s (0 Bft) S-SW67.5 195 0,00 min 14,4 klux 4,6 C 10,9 C
05.05.2004 09:20 11,0 C 11,3 C 64 % 988 hPa 0,0 l/m 3,2 m/s (1 Bft) S-SW67.5 200 0,00 min 20,5 klux 4,5 C 7,9 C
05.05.2004 09:25 11,1 C 11,4 C 63 % 988 hPa 0,0 l/m 3,8 m/s (1 Bft) SO22.5 140 0,00 min 23,4 klux 4,3 C 7,0 C
05.05.2004 09:30 11,3 C 11,4 C 63 % 988 hPa 0,0 l/m 4,6 m/s (1 Bft) SO45 140 0,00 min 19,1 klux 4,5 C 6,1 C
05.05.2004 09:35 11,1 C 11,4 C 64 % 988 hPa 0,0 l/m 3,9 m/s (1 Bft) S-SO67.5 150 0,00 min 23,4 klux 4,6 C 6,9 C
05.05.2004 09:40 11,2 C 11,4 C 63 % 988 hPa 0,0 l/m 4,9 m/s (1 Bft) S22.5 180 0,00 min 20,9 klux 4,4 C 5,6 C
05.05.2004 09:45 11,5 C 11,5 C 64 % 988 hPa 0,0 l/m 2,5 m/s (1 Bft) S67.5 170 0,00 min 22,1 klux 4,9 C 9,8 C
05.05.2004 09:50 11,6 C 11,5 C 63 % 988 hPa 0,0 l/m 3,5 m/s (1 Bft) S-SW67.5 210 0,00 min 19,5 klux 4,8 C 8,1 C
05.05.2004 09:55 11,4 C 11,6 C 63 % 988 hPa 0,0 l/m 2,8 m/s (1 Bft) S-SW67.5 210 0,00 min 24,9 klux 4,6 C 9,2 C
05.05.2004 10:00 11,7 C 11,6 C 63 % 988 hPa 0,0 l/m 3,2 m/s (1 Bft) SW67.5 230 0,00 min 27,3 klux 4,9 C 8,7 C
05.05.2004 10:05 11,7 C 11,6 C 62 % 988 hPa 0,0 l/m 4,3 m/s (1 Bft) S-SO67.5 150 0,00 min 22,4 klux 4,7 C 7,0 C
05.05.2004 10:10 11,4 C 11,5 C 63 % 988 hPa 0,0 l/m 3,8 m/s (1 Bft) S-SW67.5 195 0,00 min 17,7 klux 4,6 C 7,4 C
05.05.2004 10:15 11,3 C 11,5 C 64 % 988 hPa 0,0 l/m 2,4 m/s (1 Bft) S-SO67.5 160 0,00 min 10,9 klux 4,7 C 9,7 C
05.05.2004 10:20 11,1 C 11,4 C 64 % 988 hPa 0,0 l/m 4,8 m/s (1 Bft) S-SO45 165 0,00 min 14,2 klux 4,6 C 5,6 C
05.05.2004 10:25 11,2 C 11,4 C 64 % 988 hPa 0,0 l/m 2,2 m/s (1 Bft) S67.5 190 0,00 min 21,1 klux 4,6 C 10,1 C
05.05.2004 10:30 11,7 C 11,5 C 64 % 988 hPa 0,0 l/m 1,3 m/s (1 Bft) S-SO45 160 0,00 min 24,4 klux 5,1 C 11,7 C
05.05.2004 10:35 11,8 C 11,6 C 63 % 988 hPa 0,0 l/m 0,2 m/s (0 Bft) S67.5 175 0,00 min 24,5 klux 5,0 C 11,8 C
05.05.2004 10:40 11,6 C 11,7 C 62 % 988 hPa 0,0 l/m 4,3 m/s (1 Bft) W-SW67.5 240 0,00 min 21,4 klux 4,6 C 6,8 C
05.05.2004 10:45 11,1 C 11,7 C 63 % 988 hPa 0,0 l/m 3,6 m/s (1 Bft) SW67.5 235 0,00 min 17,2 klux 4,3 C 7,3 C
05.05.2004 10:50 12,0 C 11,7 C 63 % 988 hPa 0,0 l/m 3,4 m/s (1 Bft) S-SW67.5 205 0,00 min 36,7 klux 5,2 C 8,8 C
05.05.2004 10:55 11,9 C 12,0 C 62 % 988 hPa 0,0 l/m 5,3 m/s (1 Bft) W-SW67.5 250 0,00 min 35,2 klux 4,9 C 6,0 C
05.05.2004 11:00 11,4 C 12,0 C 62 % 988 hPa 0,0 l/m 4,9 m/s (1 Bft) SW67.5 230 0,00 min 18,1 klux 4,4 C 5,8 C
05.05.2004 11:05 11,1 C 11,9 C 63 % 988 hPa 0,0 l/m 4,1 m/s (1 Bft) SW45 230 0,00 min 21,2 klux 4,3 C 6,5 C
05.05.2004 11:10 11,5 C 11,9 C 64 % 988 hPa 0,0 l/m 5,3 m/s (1 Bft) SW67.5 220 0,00 min 17,6 klux 4,9 C 5,5 C
05.05.2004 11:15 11,5 C 11,8 C 64 % 988 hPa 0,0 l/m 4,4 m/s (1 Bft) SW45 225 0,00 min 16,5 klux 4,9 C 6,7 C
05.05.2004 11:20 11,2 C 11,8 C 64 % 988 hPa 0,0 l/m 3,8 m/s (1 Bft) W-SW45 240 0,00 min 14,3 klux 4,6 C 7,2 C
05.05.2004 11:25 11,3 C 11,7 C 65 % 989 hPa 0,0 l/m 4,5 m/s (1 Bft) SW67.5 225 0,00 min 14,5 klux 5,0 C 6,2 C
05.05.2004 11:30 11,3 C 11,6 C 65 % 989 hPa 0,0 l/m 4,8 m/s (1 Bft) SW67.5 235 0,00 min 13,4 klux 5,0 C 5,9 C
05.05.2004 11:35 11,1 C 11,6 C 66 % 989 hPa 0,0 l/m 3,2 m/s (1 Bft) S67.5 180 0,00 min 15,8 klux 5,0 C 8,0 C
05.05.2004 11:40 11,2 C 11,6 C 65 % 989 hPa 0,0 l/m 4,1 m/s (1 Bft) S-SW67.5 205 0,00 min 23,6 klux 4,9 C 6,7 C
05.05.2004 11:45 11,1 C 11,7 C 65 % 989 hPa 0,0 l/m 4,8 m/s (1 Bft) W-SW45 240 0,00 min 27,6 klux 4,8 C 5,6 C
05.05.2004 11:50 11,5 C 12,0 C 65 % 989 hPa 0,0 l/m 4,7 m/s (1 Bft) SW67.5 235 0,00 min 46,6 klux 5,2 C 6,2 C
05.05.2004 11:55 12,2 C 12,0 C 62 % 989 hPa 0,0 l/m 4,1 m/s (1 Bft) S-SW45 210 0,00 min 42,6 klux 5,1 C 8,0 C
05.05.2004 12:00 11,5 C 12,1 C 62 % 989 hPa 0,0 l/m 5,2 m/s (1 Bft) W-SW45 245 0,00 min 29,6 klux 4,5 C 5,7 C
05.05.2004 12:05 11,7 C 12,1 C 62 % 989 hPa 0,0 l/m 4,8 m/s (1 Bft) W-SW45 240 0,00 min 23,1 klux 4,7 C 6,4 C
05.05.2004 12:10 11,2 C 12,1 C 62 % 989 hPa 0,0 l/m 5,8 m/s (2 Bft) W-SW67.5 250 0,00 min 18,4 klux 4,2 C 4,6 C
05.05.2004 12:15 11,0 C 11,9 C 62 % 989 hPa 0,0 l/m 4,5 m/s (1 Bft) SW67.5 230 0,00 min 15,9 klux 4,0 C 5,8 C
05.05.2004 12:20 10,6 C 11,8 C 63 % 989 hPa 0,0 l/m 6,5 m/s (2 Bft) W-SW45 245 0,00 min 19,2 klux 3,9 C 3,1 C
05.05.2004 12:25 10,9 C 11,7 C 61 % 989 hPa 0,0 l/m 6,9 m/s (2 Bft) W-SW45 250 0,00 min 23,9 klux 3,7 C 3,1 C
05.05.2004 12:30 11,2 C 11,8 C 60 % 989 hPa 0,0 l/m 5,1 m/s (1 Bft) SW45 230 0,00 min 30,8 klux 3,7 C 5,4 C
05.05.2004 12:35 11,6 C 12,0 C 59 % 989 hPa 0,0 l/m 2,2 m/s (1 Bft) W-SW45 245 0,00 min 33,1 klux 3,9 C 10,5 C
05.05.2004 12:40 12,0 C 12,2 C 57 % 989 hPa 0,0 l/m 4,2 m/s (1 Bft) SW45 235 0,00 min 29,8 klux 3,8 C 7,6 C
05.05.2004 12:45 12,1 C 12,2 C 56 % 989 hPa 0,0 l/m 3,3 m/s (1 Bft) SW45 220 0,00 min 27,1 klux 3,6 C 9,0 C
05.05.2004 12:50 12,1 C 12,3 C 55 % 989 hPa 0,0 l/m 4,4 m/s (1 Bft) SW45 225 0,00 min 30,5 klux 3,3 C 7,4 C
05.05.2004 12:55 12,7 C 12,4 C 55 % 989 hPa 0,0 l/m 2,8 m/s (1 Bft) S45 190 0,00 min 44,7 klux 3,9 C 10,6 C
05.05.2004 13:00 13,3 C 12,8 C 52 % 989 hPa 0,0 l/m 4,1 m/s (1 Bft) W-SW45 240 0,00 min 46,9 klux 3,7 C 9,3 C
05.05.2004 13:05 13,0 C 12,8 C 50 % 989 hPa 0,0 l/m 4,8 m/s (1 Bft) W-SW45 245 0,00 min 45,5 klux 2,8 C 7,9 C
05.05.2004 13:10 13,0 C 13,0 C 50 % 989 hPa 0,0 l/m 5,2 m/s (1 Bft) SW67.5 215 0,00 min 45,8 klux 2,8 C 7,6 C
05.05.2004 13:15 12,9 C 13,1 C 50 % 989 hPa 0,0 l/m 3,3 m/s (1 Bft) SW67.5 230 0,00 min 45,8 klux 2,7 C 9,9 C
05.05.2004 13:20 12,9 C 13,2 C 50 % 989 hPa 0,0 l/m 5,1 m/s (1 Bft) W-SW45 245 0,00 min 48,4 klux 2,7 C 7,5 C
05.05.2004 13:25 12,9 C 13,4 C 49 % 989 hPa 0,0 l/m 4,8 m/s (1 Bft) W-SW45 250 0,00 min 50,7 klux 2,5 C 7,9 C
05.05.2004 13:30 12,4 C 13,5 C 48 % 989 hPa 0,0 l/m 5,3 m/s (1 Bft) W-SW45 245 0,00 min 50,0 klux 1,7 C 6,7 C
05.05.2004 13:35 13,0 C 13,7 C 47 % 989 hPa 0,0 l/m 3,1 m/s (1 Bft) W-SW45 250 0,00 min 47,6 klux 2,0 C 10,4 C
05.05.2004 13:40 13,4 C 13,8 C 48 % 989 hPa 0,0 l/m 4,4 m/s (1 Bft) SW45 225 0,00 min 46,2 klux 2,6 C 9,0 C
05.05.2004 13:45 13,6 C 13,8 C 48 % 989 hPa 0,0 l/m 4,2 m/s (1 Bft) S-SW67.5 200 0,00 min 48,3 klux 2,8 C 9,4 C
05.05.2004 13:50 12,9 C 13,8 C 49 % 989 hPa 0,0 l/m 5,2 m/s (1 Bft) W-SW45 245 0,00 min 43,8 klux 2,5 C 7,4 C
05.05.2004 13:55 13,1 C 13,9 C 47 % 989 hPa 0,0 l/m 5,4 m/s (1 Bft) W-SW67.5 245 0,00 min 40,3 klux 2,0 C 7,4 C
05.05.2004 14:00 12,9 C 13,9 C 47 % 989 hPa 0,0 l/m 3,9 m/s (1 Bft) W-SW45 245 0,00 min 38,7 klux 1,9 C 9,0 C
05.05.2004 14:05 13,4 C 13,9 C 48 % 989 hPa 0,0 l/m 5,4 m/s (1 Bft) S-SW67.5 210 0,00 min 44,1 klux 2,6 C 7,8 C
05.05.2004 14:10 13,7 C 14,1 C 49 % 989 hPa 0,0 l/m 4,1 m/s (1 Bft) S-SW67.5 195 0,00 min 44,8 klux 3,2 C 9,7 C
05.05.2004 14:15 13,7 C 14,0 C 49 % 989 hPa 0,0 l/m 4,0 m/s (1 Bft) S67.5 180 0,00 min 38,5 klux 3,2 C 9,9 C
05.05.2004 14:20 12,8 C 13,8 C 50 % 989 hPa 0,0 l/m 5,6 m/s (1 Bft) SW45 235 0,00 min 27,5 klux 2,6 C 6,9 C
05.05.2004 14:25 12,5 C 13,4 C 51 % 989 hPa 0,0 l/m 5,4 m/s (1 Bft) SW45 235 0,00 min 22,7 klux 2,6 C 6,7 C
05.05.2004 14:30 12,7 C 13,4 C 51 % 989 hPa 0,0 l/m 4,5 m/s (1 Bft) SW67.5 225 0,00 min 32,7 klux 2,8 C 8,0 C
05.05.2004 14:35 12,7 C 13,2 C 51 % 990 hPa 0,0 l/m 4,8 m/s (1 Bft) W-SW45 245 0,00 min 25,7 klux 2,8 C 7,7 C
05.05.2004 14:40 12,3 C 13,0 C 51 % 990 hPa 0,0 l/m 6,6 m/s (2 Bft) SW22.5 225 0,00 min 14,0 klux 2,5 C 5,3 C
05.05.2004 14:45 12,3 C 12,9 C 52 % 990 hPa 0,0 l/m 4,5 m/s (1 Bft) S-SW67.5 200 0,00 min 15,8 klux 2,7 C 7,5 C
05.05.2004 14:50 12,2 C 12,9 C 54 % 990 hPa 0,0 l/m 3,1 m/s (1 Bft) SW45 220 0,00 min 15,6 klux 3,2 C 9,4 C
05.05.2004 14:55 12,4 C 12,9 C 54 % 990 hPa 0,0 l/m 2,9 m/s (1 Bft) S67.5 185 0,00 min 18,7 klux 3,4 C 10,0 C
05.05.2004 15:00 12,2 C 12,9 C 52 % 990 hPa 0,0 l/m 4,9 m/s (1 Bft) SW22.5 225 0,00 min 18,1 klux 2,6 C 6,8 C
05.05.2004 15:05 12,0 C 12,8 C 50 % 990 hPa 0,0 l/m 4,9 m/s (1 Bft) W-SW67.5 240 0,00 min 18,5 klux 1,9 C 6,6 C
05.05.2004 15:10 12,3 C 12,8 C 51 % 990 hPa 0,0 l/m 4,3 m/s (1 Bft) W-SW45 240 0,00 min 27,3 klux 2,5 C 7,8 C
05.05.2004 15:15 12,5 C 12,9 C 51 % 990 hPa 0,0 l/m 3,8 m/s (1 Bft) SW22.5 225 0,00 min 30,0 klux 2,6 C 8,7 C
05.05.2004 15:20 12,1 C 13,0 C 49 % 990 hPa 0,0 l/m 5,7 m/s (1 Bft) W-SW22.5 255 0,00 min 40,5 klux 1,7 C 5,9 C
05.05.2004 15:25 12,7 C 13,2 C 50 % 990 hPa 0,0 l/m 5,1 m/s (1 Bft) SW22.5 230 0,00 min 42,3 klux 2,6 C 7,3 C
05.05.2004 15:30 13,1 C 13,4 C 49 % 990 hPa 0,0 l/m 5,1 m/s (1 Bft) SW67.5 225 0,00 min 44,2 klux 2,6 C 7,8 C
05.05.2004 15:35 13,4 C 13,5 C 49 % 990 hPa 0,0 l/m 5,7 m/s (1 Bft) SW67.5 220 0,00 min 42,2 klux 2,9 C 7,5 C
05.05.2004 15:40 13,4 C 13,6 C 47 % 990 hPa 0,0 l/m 3,5 m/s (1 Bft) SW67.5 215 0,00 min 39,1 klux 2,3 C 10,1 C
05.05.2004 15:45 13,5 C 13,6 C 46 % 990 hPa 0,0 l/m 5,1 m/s (1 Bft) SW45 235 0,00 min 36,1 klux 2,1 C 8,2 C
05.05.2004 15:50 13,4 C 13,6 C 46 % 990 hPa 0,0 l/m 5,2 m/s (1 Bft) S-SW45 210 0,00 min 35,4 klux 2,0 C 8,0 C
05.05.2004 15:55 13,5 C 13,6 C 46 % 990 hPa 0,0 l/m 3,4 m/s (1 Bft) S-SW67.5 205 0,00 min 29,2 klux 2,1 C 10,5 C
05.05.2004 16:00 12,7 C 13,7 C 47 % 990 hPa 0,0 l/m 4,7 m/s (1 Bft) W-SW45 240 0,00 min 25,5 klux 1,7 C 7,8 C
05.05.2004 16:05 12,5 C 13,6 C 49 % 990 hPa 0,0 l/m 4,4 m/s (1 Bft) W-SW45 245 0,00 min 27,5 klux 2,1 C 7,8 C
05.05.2004 16:10 12,6 C 13,4 C 48 % 990 hPa 0,0 l/m 3,4 m/s (1 Bft) W-SW67.5 240 0,00 min 25,7 klux 1,9 C 9,4 C
05.05.2004 16:15 13,1 C 13,4 C 50 % 990 hPa 0,0 l/m 3,4 m/s (1 Bft) SW45 220 0,00 min 35,9 klux 2,9 C 10,0 C
05.05.2004 16:20 12,9 C 13,5 C 49 % 990 hPa 0,0 l/m 2,9 m/s (1 Bft) S-SW45 210 0,00 min 35,4 klux 2,5 C 10,6 C
05.05.2004 16:25 12,6 C 13,5 C 48 % 990 hPa 0,0 l/m 4,2 m/s (1 Bft) SW45 235 0,00 min 32,6 klux 1,9 C 8,2 C
05.05.2004 16:30 12,6 C 13,6 C 50 % 990 hPa 0,0 l/m 4,4 m/s (1 Bft) W-SW67.5 240 0,00 min 32,2 klux 2,5 C 8,0 C
05.05.2004 16:35 12,7 C 13,6 C 51 % 990 hPa 0,0 l/m 4,2 m/s (1 Bft) W-SW45 240 0,00 min 34,8 klux 2,8 C 8,4 C
05.05.2004 16:40 13,1 C 13,8 C 49 % 990 hPa 0,0 l/m 3,6 m/s (1 Bft) SW45 230 0,00 min 37,6 klux 2,6 C 9,7 C
05.05.2004 16:45 13,5 C 13,8 C 48 % 990 hPa 0,0 l/m 4,0 m/s (1 Bft) SW67.5 215 0,00 min 41,2 klux 2,7 C 9,6 C
05.05.2004 16:50 13,5 C 14,2 C 47 % 990 hPa 0,0 l/m 3,3 m/s (1 Bft) SW22.5 225 0,00 min 38,5 klux 2,4 C 10,5 C
05.05.2004 16:55 13,9 C 14,4 C 48 % 990 hPa 0,0 l/m 3,1 m/s (1 Bft) SW45 220 0,00 min 36,5 klux 3,1 C 11,4 C
05.05.2004 17:00 13,8 C 14,4 C 46 % 990 hPa 0,0 l/m 3,6 m/s (1 Bft) SW67.5 215 0,00 min 34,9 klux 2,4 C 10,6 C
05.05.2004 17:05 13,7 C 14,4 C 47 % 990 hPa 0,0 l/m 2,8 m/s (1 Bft) S-SW67.5 210 0,00 min 32,1 klux 2,6 C 11,6 C
05.05.2004 17:10 13,8 C 14,4 C 49 % 990 hPa 0,0 l/m 3,2 m/s (1 Bft) S67.5 170 0,00 min 34,2 klux 3,3 C 11,1 C
05.05.2004 17:15 13,5 C 14,2 C 47 % 990 hPa 0,0 l/m 2,9 m/s (1 Bft) S-SO45 160 0,00 min 25,2 klux 2,4 C 11,2 C
05.05.2004 17:20 13,1 C 14,2 C 48 % 990 hPa 0,0 l/m 4,3 m/s (1 Bft) S-SO22.5 150 0,00 min 25,0 klux 2,3 C 8,7 C
05.05.2004 17:25 13,3 C 14,1 C 48 % 990 hPa 0,0 l/m 3,5 m/s (1 Bft) SO22.5 140 0,00 min 24,9 klux 2,5 C 10,1 C
05.05.2004 17:30 13,1 C 14,0 C 48 % 990 hPa 0,0 l/m 2,7 m/s (1 Bft) S-SO67.5 160 0,00 min 24,0 klux 2,3 C 11,2 C
05.05.2004 17:35 13,0 C 13,9 C 48 % 990 hPa 0,0 l/m 2,6 m/s (1 Bft) S-SO45 165 0,00 min 24,2 klux 2,3 C 11,3 C
05.05.2004 17:40 13,1 C 13,9 C 50 % 990 hPa 0,0 l/m 0,1 m/s (0 Bft) S45 170 0,00 min 26,5 klux 2,9 C 13,1 C
05.05.2004 17:45 13,1 C 14,0 C 49 % 990 hPa 0,0 l/m 3,5 m/s (1 Bft) S-SO45 165 0,00 min 25,2 klux 2,6 C 9,9 C
05.05.2004 17:50 13,2 C 14,0 C 48 % 990 hPa 0,0 l/m 1,9 m/s (1 Bft) SW22.5 225 0,00 min 25,7 klux 2,4 C 12,8 C
05.05.2004 17:55 13,4 C 14,2 C 48 % 990 hPa 0,0 l/m 1,8 m/s (1 Bft) S-SO67.5 150 0,00 min 30,8 klux 2,6 C 13,3 C
05.05.2004 18:00 13,5 C 14,4 C 49 % 990 hPa 0,0 l/m 1,2 m/s (1 Bft) S-SW67.5 205 0,00 min 28,3 klux 3,0 C 13,5 C
05.05.2004 18:05 13,6 C 14,4 C 46 % 990 hPa 0,0 l/m 0,1 m/s (0 Bft) S45 190 0,00 min 24,4 klux 2,2 C 13,6 C
05.05.2004 18:10 13,4 C 14,3 C 46 % 990 hPa 0,0 l/m 0,3 m/s (0 Bft) S-SW45 195 0,00 min 22,6 klux 2,0 C 13,4 C
05.05.2004 18:15 13,3 C 14,1 C 47 % 990 hPa 0,0 l/m 1,9 m/s (1 Bft) S67.5 180 0,00 min 20,3 klux 2,2 C 13,1 C
05.05.2004 18:20 13,3 C 14,1 C 47 % 990 hPa 0,0 l/m 1,9 m/s (1 Bft) SO22.5 140 0,00 min 18,7 klux 2,2 C 13,1 C
05.05.2004 18:25 12,7 C 14,0 C 46 % 990 hPa 0,0 l/m 2,2 m/s (1 Bft) SW67.5 235 0,00 min 18,4 klux 1,4 C 11,8 C
05.05.2004 18:30 13,0 C 13,9 C 47 % 990 hPa 0,0 l/m 0,5 m/s (0 Bft) SW45 230 0,00 min 18,3 klux 2,0 C 13,0 C
05.05.2004 18:35 12,7 C 13,9 C 47 % 990 hPa 0,0 l/m 3,1 m/s (1 Bft) SW45 230 0,00 min 18,3 klux 1,7 C 10,0 C
05.05.2004 18:40 12,9 C 13,9 C 48 % 990 hPa 0,0 l/m 2,2 m/s (1 Bft) SW45 235 0,00 min 17,8 klux 2,2 C 12,0 C
05.05.2004 18:45 12,7 C 13,7 C 47 % 990 hPa 0,0 l/m 3,0 m/s (1 Bft) W-SW22.5 245 0,00 min 18,2 klux 1,7 C 10,2 C
05.05.2004 18:50 12,8 C 13,6 C 47 % 990 hPa 0,0 l/m 2,6 m/s (1 Bft) SW45 230 0,00 min 18,2 klux 1,8 C 11,0 C
05.05.2004 18:55 12,9 C 13,6 C 48 % 990 hPa 0,0 l/m 1,7 m/s (1 Bft) S-SW67.5 205 0,00 min 18,0 klux 2,2 C 12,9 C
05.05.2004 19:00 12,9 C 13,7 C 47 % 990 hPa 0,0 l/m 1,4 m/s (1 Bft) SW45 230 0,00 min 17,4 klux 1,9 C 12,9 C
05.05.2004 19:05 12,9 C 13,8 C 47 % 990 hPa 0,0 l/m 2,4 m/s (1 Bft) SW22.5 235 0,00 min 16,7 klux 1,9 C 11,6 C
05.05.2004 19:10 12,8 C 13,7 C 48 % 990 hPa 0,0 l/m 0,1 m/s (0 Bft) SW22.5 225 0,00 min 14,2 klux 2,1 C 12,8 C
05.05.2004 19:15 12,7 C 13,6 C 48 % 990 hPa 0,0 l/m 2,3 m/s (1 Bft) S45 180 0,00 min 13,7 klux 2,0 C 11,6 C
05.05.2004 19:20 12,7 C 13,5 C 48 % 990 hPa 0,0 l/m 1,9 m/s (1 Bft) S67.5 170 0,00 min 12,6 klux 2,0 C 12,5 C
05.05.2004 19:25 12,7 C 13,5 C 48 % 990 hPa 0,0 l/m 2,6 m/s (1 Bft) SW45 220 0,00 min 12,2 klux 2,0 C 11,0 C
05.05.2004 19:30 12,8 C 13,5 C 46 % 990 hPa 0,0 l/m 1,6 m/s (1 Bft) S-SW45 210 0,00 min 12,4 klux 1,5 C 12,8 C
05.05.2004 19:35 12,6 C 13,5 C 46 % 990 hPa 0,0 l/m 2,0 m/s (1 Bft) S-SW67.5 210 0,00 min 10,7 klux 1,3 C 12,2 C
05.05.2004 19:40 12,5 C 13,4 C 48 % 990 hPa 0,0 l/m 1,9 m/s (1 Bft) SW22.5 215 0,00 min 8,21 klux 1,8 C 12,2 C
05.05.2004 19:45 12,5 C 13,3 C 48 % 990 hPa 0,0 l/m 0,1 m/s (0 Bft) S22.5 190 0,00 min 6,85 klux 1,8 C 12,5 C
05.05.2004 19:50 12,3 C 13,2 C 48 % 990 hPa 0,0 l/m 0,1 m/s (0 Bft) S-SW 210 0,00 min 5,73 klux 1,6 C 12,3 C
05.05.2004 19:55 12,3 C 13,1 C 49 % 990 hPa 0,0 l/m 0,1 m/s (0 Bft) S-SW 210 0,00 min 5,72 klux 1,9 C 12,3 C
05.05.2004 20:00 12,3 C 13,0 C 50 % 990 hPa 0,0 l/m 0,0 m/s (0 Bft) S22.5 175 0,00 min 5,61 klux 2,2 C 12,3 C
05.05.2004 20:05 12,0 C 12,9 C 50 % 990 hPa 0,0 l/m 1,7 m/s (1 Bft) SW22.5 215 0,00 min 3,63 klux 1,9 C 12,0 C
05.05.2004 20:10 11,7 C 12,8 C 52 % 990 hPa 0,0 l/m 0,0 m/s (0 Bft) S-SO45 165 0,00 min 3,38 klux 2,2 C 11,7 C
05.05.2004 20:15 11,6 C 12,6 C 54 % 991 hPa 0,0 l/m 0,1 m/s (0 Bft) SO22.5 135 0,00 min 2,92 klux 2,6 C 11,6 C
05.05.2004 20:20 11,3 C 12,4 C 55 % 991 hPa 0,0 l/m 0,9 m/s (0 Bft) SO45 145 0,00 min 2,29 klux 2,6 C 11,3 C
05.05.2004 20:25 11,0 C 12,3 C 56 % 991 hPa 0,0 l/m 0,0 m/s (0 Bft) SO 135 0,00 min 2,17 klux 2,6 C 11,0 C
05.05.2004 20:30 10,8 C 12,1 C 59 % 991 hPa 0,0 l/m 0,0 m/s (0 Bft) SO 135 0,00 min 1,78 klux 3,1 C 10,8 C
05.05.2004 20:35 10,5 C 11,9 C 62 % 991 hPa 0,0 l/m 0,0 m/s (0 Bft) O-NO 65 0,00 min 1,25 klux 3,5 C 10,5 C
05.05.2004 20:40 10,1 C 11,8 C 63 % 991 hPa 0,0 l/m 0,0 m/s (0 Bft) O-NO 60 0,00 min 1,05 klux 3,4 C 10,1 C
05.05.2004 20:45 10,1 C 11,5 C 62 % 991 hPa 0,0 l/m 1,3 m/s (1 Bft) O-NO45 65 0,00 min 915 lux 3,2 C 10,1 C
05.05.2004 20:50 9,7 C 11,3 C 64 % 991 hPa 0,0 l/m 0,9 m/s (0 Bft) NO22.5 45 0,00 min 643 lux 3,2 C 9,7 C
05.05.2004 20:55 9,5 C 11,0 C 65 % 991 hPa 0,0 l/m 0,0 m/s (0 Bft) NO22.5 35 0,00 min 440 lux 3,3 C 9,5 C
05.05.2004 21:00 9,1 C 10,9 C 67 % 991 hPa 0,0 l/m 0,0 m/s (0 Bft) O-NO 75 0,00 min 299 lux 3,3 C 9,1 C
05.05.2004 21:05 9,0 C 10,6 C 67 % 991 hPa 0,0 l/m 0,0 m/s (0 Bft) O 80 0,00 min 158 lux 3,2 C 9,0 C
05.05.2004 21:10 8,7 C 10,3 C 69 % 991 hPa 0,0 l/m 0,0 m/s (0 Bft) NO 55 0,00 min 90 lux 3,3 C 8,7 C
05.05.2004 21:15 8,5 C 10,2 C 69 % 991 hPa 0,0 l/m 0,0 m/s (0 Bft) NO 55 0,00 min 68 lux 3,1 C 8,5 C
05.05.2004 21:20 8,2 C 9,9 C 70 % 991 hPa 0,0 l/m 0,9 m/s (0 Bft) O-NO22.5 65 0,00 min 28 lux 3,1 C 8,2 C
05.05.2004 21:25 8,2 C 9,7 C 70 % 991 hPa 0,0 l/m 1,4 m/s (1 Bft) O-NO22.5 70 0,00 min 22 lux 3,1 C 8,2 C
05.05.2004 21:30 8,3 C 9,6 C 70 % 991 hPa 0,0 l/m 1,1 m/s (1 Bft) NO22.5 50 0,00 min 12 lux 3,2 C 8,3 C
05.05.2004 21:35 8,2 C 9,5 C 70 % 991 hPa 0,0 l/m 0,0 m/s (0 Bft) NO 50 0,00 min 8 lux 3,1 C 8,2 C
05.05.2004 21:40 8,0 C 9,3 C 71 % 991 hPa 0,0 l/m 0,0 m/s (0 Bft) NO 50 0,00 min 4 lux 3,1 C 8,0 C
05.05.2004 21:45 7,6 C 9,2 C 73 % 991 hPa 0,0 l/m 0,0 m/s (0 Bft) NO 50 0,00 min 0 lux 3,1 C 7,6 C
05.05.2004 21:50 7,7 C 9,1 C 74 % 991 hPa 0,0 l/m 0,0 m/s (0 Bft) NO 50 0,00 min 0 lux 3,4 C 7,7 C
05.05.2004 21:55 7,6 C 9,0 C 76 % 991 hPa 0,0 l/m 0,0 m/s (0 Bft) NO 50 0,00 min 0 lux 3,6 C 7,6 C
05.05.2004 22:00 7,2 C 8,9 C 76 % 991 hPa 0,0 l/m 0,0 m/s (0 Bft) NO 50 0,00 min 0 lux 3,3 C 7,2 C
05.05.2004 22:05 6,9 C 8,8 C 78 % 991 hPa 0,0 l/m 0,0 m/s (0 Bft) NO 50 0,00 min 0 lux 3,3 C 6,9 C
05.05.2004 22:10 6,9 C 8,6 C 78 % 992 hPa 0,0 l/m 0,0 m/s (0 Bft) NO 50 0,00 min 0 lux 3,3 C 6,9 C
05.05.2004 22:15 6,9 C 8,5 C 79 % 992 hPa 0,0 l/m 0,0 m/s (0 Bft) NO 50 0,00 min 0 lux 3,5 C 6,9 C
05.05.2004 22:20 6,9 C 8,4 C 79 % 992 hPa 0,0 l/m 0,0 m/s (0 Bft) NO 50 0,00 min 0 lux 3,5 C 6,9 C
05.05.2004 22:25 7,0 C 8,3 C 79 % 992 hPa 0,0 l/m 1,3 m/s (1 Bft) O22.5 80 0,00 min 0 lux 3,6 C 7,0 C
05.05.2004 22:30 6,9 C 8,1 C 79 % 992 hPa 0,0 l/m 0,0 m/s (0 Bft) O 95 0,00 min 0 lux 3,5 C 6,9 C
05.05.2004 22:35 6,7 C 8,0 C 80 % 992 hPa 0,0 l/m 0,0 m/s (0 Bft) O 95 0,00 min 0 lux 3,5 C 6,7 C
05.05.2004 22:40 6,6 C 8,0 C 81 % 992 hPa 0,0 l/m 0,0 m/s (0 Bft) O 95 0,00 min 0 lux 3,6 C 6,6 C
05.05.2004 22:45 6,4 C 7,8 C 81 % 992 hPa 0,0 l/m 0,0 m/s (0 Bft) O 95 0,00 min 0 lux 3,4 C 6,4 C
05.05.2004 22:50 6,4 C 7,7 C 82 % 992 hPa 0,0 l/m 0,0 m/s (0 Bft) O 95 0,00 min 0 lux 3,6 C 6,4 C
05.05.2004 22:55 6,1 C 7,7 C 82 % 992 hPa 0,0 l/m 0,0 m/s (0 Bft) O 95 0,00 min 0 lux 3,3 C 6,1 C
05.05.2004 23:00 6,0 C 7,6 C 82 % 992 hPa 0,0 l/m 0,0 m/s (0 Bft) O 95 0,00 min 0 lux 3,2 C 6,0 C
05.05.2004 23:05 6,1 C 7,5 C 83 % 992 hPa 0,0 l/m 0,0 m/s (0 Bft) O 95 0,00 min 0 lux 3,4 C 6,1 C
05.05.2004 23:10 6,3 C 7,5 C 83 % 992 hPa 0,0 l/m 0,0 m/s (0 Bft) O 95 0,00 min 0 lux 3,6 C 6,3 C
05.05.2004 23:15 6,3 C 7,4 C 83 % 992 hPa 0,0 l/m 0,0 m/s (0 Bft) O 95 0,00 min 0 lux 3,6 C 6,3 C
05.05.2004 23:20 6,3 C 7,4 C 83 % 992 hPa 0,0 l/m 0,0 m/s (0 Bft) O 85 0,00 min 0 lux 3,6 C 6,3 C
05.05.2004 23:25 5,9 C 7,3 C 84 % 992 hPa 0,0 l/m 0,0 m/s (0 Bft) O-SO 115 0,00 min 0 lux 3,4 C 5,9 C
05.05.2004 23:30 5,9 C 7,3 C 84 % 992 hPa 0,0 l/m 0,0 m/s (0 Bft) O 90 0,00 min 0 lux 3,4 C 5,9 C
05.05.2004 23:35 6,2 C 7,2 C 83 % 992 hPa 0,0 l/m 0,0 m/s (0 Bft) O22.5 95 0,00 min 0 lux 3,5 C 6,2 C
05.05.2004 23:40 6,0 C 7,2 C 83 % 992 hPa 0,0 l/m 0,0 m/s (0 Bft) S-SO22.5 150 0,00 min 0 lux 3,3 C 6,0 C
05.05.2004 23:45 6,0 C 7,1 C 83 % 992 hPa 0,0 l/m 0,0 m/s (0 Bft) O-SO 115 0,00 min 0 lux 3,3 C 6,0 C
05.05.2004 23:50 6,0 C 7,1 C 84 % 992 hPa 0,0 l/m 0,0 m/s (0 Bft) O-SO 115 0,00 min 0 lux 3,5 C 6,0 C
05.05.2004 23:55 6,0 C 7,1 C 84 % 992 hPa 0,0 l/m 0,0 m/s (0 Bft) O22.5 100 0,00 min 0 lux 3,5 C 6,0 C
_ Min-Zeit 23:25 23:45 15:45 04:30 - 00:00 - - - - 19:35 08:00
Minimum _ 5,9 C 7,1 C 46 % 987 hPa - 0,0 m/s (0 Bft) - - - - 1,3 C 2,6 C
_ Max-Zeit 16:55 16:55 00:20 22:10 00:00 12:25 - - 00:00 13:25 02:30 18:05
Maximum _ 13,9 C 14,4 C 85 % 992 hPa 0,0 l/m 6,9 m/s
W-SW (4 Bft)
- - 0,00 min 50,7 klux 6,0 C 13,6 C
Durchschnitt _ 10,4 C 11,1 C 65 % 989 hPa #0,0 l/m 2,3 m/s (2 Bft) SW - #0 min. 13,4 klux 3,7 C 8,2 C